Location: Fontenoy
(49.4072°N, 3.2008°E)
Time: 22:39:22
(UTC+00:00)

Cosmos 1777 Rocket - Pass Details

Date: 15 May 2026
Orbit: 754 x 771 km, 74.0° (Epoch: 10 June)

Event Time Altitude Azimuth Distance (km) Brightness Sun altitude
Rises 21:32:44 0° 333° (NNW) 3,242 9.1 -15.7°
Reaches altitude 10° 21:35:08 10° 331° (NNW) 2,309 7.9 -15.9°
Maximum altitude 21:40:17 61° 252° (WSW) 866 4.3 -16.3°
Enters shadow 21:43:22 24° 179° (S) 1,547 5.1 -16.5°
